Port Edwards, WI

5:06 PM CST on December 06, 2016 (GMT -0600)
Alexander Field South Wood County

Weather History for KISW - April, 2013

Change the Weather History Date:

Friday, April 26, 2013

  Actual Average Record
Temperature  
Mean Temperature 54 °F -  
Max Temperature 72 °F 65 °F 85 °F (1962)
Min Temperature 36 °F 37 °F 24 °F (1972)
Degree Days  
Heating Degree Days 11    
Growing Degree Days 4 (Base 50)    
Moisture  
Dew Point 34 °F    
Average Humidity 49    
Maximum Humidity 73    
Minimum Humidity 27    
Precipitation  
Precipitation 0.05 in - - ()
Sea Level Pressure  
Sea Level Pressure 30.16 in    
Wind  
Wind Speed 8 mph (South)    
Max Wind Speed 18 mph    
Max Gust Speed 31 mph    
Visibility 10 miles    
Events Rain    
Averages and records for this station are not official NWS values.
T = Trace of Precipitation, MM = Missing Value Source: NWS Daily Summary

Daily Weather History Graph

Daily Weather History Graph

Search for Another Location

Airport or City:

Trip Planner

Search our weather history database for the weather conditions in past years. The results will help you decide how hot, cold, wet, or windy it might be!

Date:

Astronomy

Apr. 26, 2013 Rise Set
Actual Time 5:57 AM CDT 7:57 PM CDT
Civil Twilight 5:25 AM CDT 8:29 PM CDT
Nautical Twilight 4:47 AM CDT 9:07 PM CDT
Astronomical Twilight 4:05 AM CDT 9:50 PM CDT
Moon 9:23 PM CDT (4/26) 6:22 AM CDT (4/26)
Length of Visible Light 15h 03m
Length of Day
14h 00m
Full, 99% of the Moon is Illuminated
Apr 26
Full
May 2
Last Quarter
May 9
New
May 17
First Quarter
May 24
Full

Hourly Weather History & Observations

Time (CDT) Temp. Windchill Dew Point Humidity Pressure Visibility Wind Dir Wind Speed Gust Speed Precip Events Conditions
12:54 AM 36.0 °F 32.1 °F 25.0 °F 64% 30.26 in 10.0 mi South 4.6 mph - N/A   Clear
1:54 AM 36.0 °F 31.1 °F 24.1 °F 62% 30.23 in 10.0 mi South 5.8 mph - N/A   Clear
2:54 AM 37.0 °F 34.5 °F 24.1 °F 59% 30.24 in 10.0 mi South 3.5 mph - N/A   Overcast
3:54 AM 39.0 °F 36.8 °F 24.1 °F 55% 30.23 in 10.0 mi SE 3.5 mph - 0.00 in   Overcast
4:54 AM 41.0 °F 36.4 °F 23.0 °F 49% 30.22 in 10.0 mi SSE 6.9 mph - 0.00 in   Overcast
5:54 AM 39.9 °F 35.8 °F 28.9 °F 65% 30.21 in 10.0 mi SE 5.8 mph - 0.01 in Rain Light Rain
6:54 AM 39.0 °F 35.7 °F 30.9 °F 73% 30.23 in 10.0 mi SE 4.6 mph - 0.01 in   Overcast
7:54 AM 39.9 °F 35.1 °F 30.9 °F 70% 30.22 in 10.0 mi SE 6.9 mph - 0.03 in   Overcast
8:54 AM 43.0 °F 38.8 °F 33.1 °F 68% 30.21 in 10.0 mi East 6.9 mph - N/A   Clear
9:54 AM 50.0 °F - 30.9 °F 48% 30.17 in 10.0 mi South 9.2 mph - N/A   Mostly Cloudy
10:54 AM 59.0 °F - 34.0 °F 39% 30.15 in 10.0 mi SW 15.0 mph 24.2 mph N/A   Clear
11:54 AM 62.1 °F - 34.0 °F 35% 30.13 in 10.0 mi South 15.0 mph 26.5 mph N/A   Clear
12:54 PM 68.0 °F - 35.1 °F 30% 30.11 in 10.0 mi SSW 13.8 mph 25.3 mph N/A   Clear
1:54 PM 70.0 °F - 34.0 °F 27% 30.10 in 10.0 mi SW 18.4 mph 29.9 mph N/A   Partly Cloudy
2:54 PM 72.0 °F - 36.0 °F 27% 30.09 in 10.0 mi SSW 15.0 mph 27.6 mph N/A   Partly Cloudy
3:54 PM 69.1 °F - 36.0 °F 30% 30.09 in 10.0 mi SW 18.4 mph 31.1 mph N/A   Mostly Cloudy
4:54 PM 70.0 °F - 37.9 °F 31% 30.08 in 10.0 mi WSW 17.3 mph 26.5 mph N/A   Scattered Clouds
5:54 PM 69.1 °F - 39.0 °F 33% 30.08 in 10.0 mi SW 13.8 mph 23.0 mph N/A   Partly Cloudy
6:54 PM 68.0 °F - 39.9 °F 36% 30.09 in 10.0 mi WSW 15.0 mph 24.2 mph N/A   Clear
7:54 PM 63.0 °F - 42.1 °F 46% 30.12 in 10.0 mi SSW 8.1 mph - N/A   Clear
8:54 PM 61.0 °F - 43.0 °F 52% 30.14 in 10.0 mi SSW 8.1 mph - N/A   Clear
9:54 PM 60.1 °F - 43.0 °F 53% 30.16 in 10.0 mi SSW 9.2 mph - N/A   Overcast
10:54 PM 57.9 °F - 43.0 °F 58% 30.16 in 10.0 mi SSW 10.4 mph - N/A   Mostly Cloudy
11:54 PM 55.9 °F - 45.0 °F 67% 30.18 in 9.0 mi SW 6.9 mph - 0.00 in Rain Light Rain